Please be sure to check the latest weather conditions by clicking the link and viewing our local weather information!

Check Weather

Welcome to Lakeway Airpark (3R9)

FromTheAir

We’re a community airpark nestled within the town of Lakeway, Texas (17 miles northwest of downtown Austin).

Lakeway Airpark, Inc. was formed by Lakeway residents and interested parties to own and manage Lakeway Airpark (3R9).

The Airpark is a privately owned not for profit public use airport for residents and guests of Lakeway. No public funds are used and the airport is supported by fees and fuel sales at the airport.

Lakeway Airpark is an unmanned facility open for use from Sunrise to Sunset seven days a week. Takeoffs and landings are not permitted at night, between Sunset and Sunrise, by City Ordinance.

Quick Weather Info

Available data for KAUS from the past 2 hours
AUSTIN, TX
Metar
KAUS 230553Z 26005KT 10SM CLR 10/02 A2998 RMK AO2 SLP151 T01000017 10189 20100 402110100 51014 $

05:53 UTC

Wind: 260° 5kt

Visibility: 10 SM

Sky:

Temp: 10 deg C / 50 deg F

Dewpoint: 2 deg C / 35.6 deg F

Pressure: 29.98 inHg

TAF
KAUS 230521Z 2306/2412 29004KT P6SM SKC FM231700 20009KT P6SM SKC